Location: Brookfield Center
(41.2406°N, 80.5579°W)
Time: 18:41:25
(UTC+00:00)

Meteor 1-24 Rocket - Pass Details

Date: 18 January 2020
Orbit: 791 x 927 km, 81.3° (Epoch: 25 February)

Event Time Altitude Azimuth Distance (km) Brightness Sun altitude
Exits shadow 10:27:07 65° 295° (WNW) 961 3.6 -25.5°
Maximum altitude 10:27:35 69° 264° (W) 943 3.6 -25.4°
Drops below altitude 10° 10:33:24 10° 182° (S) 2,570 6.3 -24.3°
Sets 10:35:54 0° 180° (S) 3,523 7.0 -23.8°
